Location: Izdebno
(52.6670°N, 16.2170°E)
Time: 04:03:54
(UTC+02:00)

SR - Pass Details

Date: 02 March 2024
Orbit: 577 x 862 km, 66.7° (Epoch: 22 April)

Event Time Altitude Azimuth Distance (km) Brightness Sun altitude
Rises 14:15:16 0° 217° (SW) 3,436 ? 24.5°
Reaches altitude 10° 14:17:47 10° 217° (SW) 2,492 ? 24.3°
Maximum altitude 14:23:36 89° 130° (SE) 844 ? 23.8°
Drops below altitude 10° 14:29:09 10° 40° (NE) 2,384 ? 23.3°
Sets 14:31:31 0° 40° (NE) 3,277 ? 23.0°
